GW3793 Weather Reports


Display with metric or nautical units.
time (UTC)temp
F
wind
direction
speed
MPH
gust
MPH
rain 1hr
in
rain 24hr
in
rain mn
in
humidity
%
barometer
mb
20260508170003 62 167 4.0 8.0 0.00 0.00 0.00 46 1011.7
20260508165403 61 165 4.0 8.0 0.00 0.00 0.00 46 1011.5
20260508164503 60 173 3.0 6.0 0.00 0.00 0.00 46 1011.6
20260508163603 60 168 3.0 6.0 0.00 0.00 0.00 46 1011.6
20260508162917 59 168 3.0 6.0 0.00 0.00 0.00 45 1011.6
20260508161803 59 169 2.0 5.0 0.00 0.00 0.00 47 1011.5
20260508160903 59 159 3.0 6.0 0.00 0.00 0.00 46 1011.6
20260508160003 58 173 4.0 7.0 0.00 0.00 0.00 46 1011.9
20260508155403 58 175 3.0 6.0 0.00 0.00 0.00 46 1011.9
20260508154503 57 174 3.0 5.0 0.00 0.00 0.00 51 1011.6
20260508153603 56 172 3.0 4.0 0.00 0.00 0.00 51 1011.9
20260508152703 55 166 2.0 4.0 0.00 0.00 0.00 53 1011.7
20260508151803 54 166 2.0 4.0 0.00 0.00 0.00 55 1012.1
20260508150903 53 160 2.0 3.0 0.00 0.00 0.00 59 1012.2
20260508150004 51 168 2.0 4.0 0.00 0.00 0.00 60 1012.4
20260508145403 51 163 2.0 4.0 0.00 0.00 0.00 61 1012.0
20260508144503 50 169 2.0 3.0 0.00 0.00 0.00 61 1011.9
20260508143603 50 173 1.0 4.0 0.00 0.00 0.00 63 1012.1
20260508142703 48 176 1.0 2.0 0.00 0.00 0.00 64 1012.1
20260508142018 47 166 0.0 2.0 0.00 0.00 0.00 66 1012.1
20260508140903 46 157 1.0 2.0 0.00 0.00 0.00 67 1012.1
20260508140003 44 173 1.0 3.0 0.00 0.00 0.00 70 1012.1
20260508135403 43 167 1.0 3.0 0.00 0.00 0.00 70 1012.1
20260508134503 41 165 1.0 2.0 0.00 0.00 0.00 71 1011.9
20260508133603 40 160 0.0 2.0 0.00 0.00 0.00 71 1012.1
20260508132703 40 142 0.0 2.0 0.00 0.00 0.00 71 1012.1
20260508131803 40 52 0.0 2.0 0.00 0.00 0.00 72 1012.1
20260508130903 40 161 0.0 1.0 0.00 0.00 0.00 72 1012.0
20260508130003 40 132 0.0 2.0 0.00 0.00 0.00 73 1012.0
20260508125403 40 143 0.0 2.0 0.00 0.00 0.00 73 1012.1
20260508124503 40 132 0.0 3.0 0.00 0.00 0.00 73 1012.1
20260508123603 40 173 1.0 2.0 0.00 0.00 0.00 73 1011.7
20260508122918 40 168 1.0 2.0 0.00 0.00 0.00 71 1012.2
20260508121803 40 163 0.0 3.0 0.00 0.00 0.00 70 1012.0
20260508120903 40 166 1.0 4.0 0.00 0.00 0.00 71 1012.3
20260508120004 40 156 0.0 2.0 0.00 0.00 0.00 68 1012.2
20260508115403 40 171 0.0 2.0 0.00 0.00 0.00 69 1012.3
20260508114503 41 163 0.0 2.0 0.00 0.00 0.00 68 1012.2
20260508113603 41 148 0.0 2.0 0.00 0.00 0.00 67 1012.5
20260508112703 41 146 1.0 2.0 0.00 0.00 0.00 68 1012.3
20260508111803 41 164 1.0 3.0 0.00 0.00 0.00 68 1012.4
20260508110903 41 170 1.0 3.0 0.00 0.00 0.00 68 1012.2
20260508110003 41 167 1.0 3.0 0.00 0.00 0.00 69 1012.3
20260508105403 41 131 0.0 2.0 0.00 0.00 0.00 69 1012.4
20260508104503 41 160 0.0 2.0 0.00 0.00 0.00 70 1012.6
20260508103603 42 167 0.0 2.0 0.00 0.00 0.00 69 1012.5
20260508102703 42 175 1.0 3.0 0.00 0.00 0.00 67 1012.5
20260508101803 41 177 1.0 3.0 0.00 0.00 0.00 66 1012.6
20260508100903 41 0 0.0 0.0 0.00 0.00 0.00 65 1012.8
20260508100217 42 83 0.0 2.0 0.00 0.00 0.00 66 1012.5
20260508095617 42 81 0.0 2.0 0.00 0.00 0.00 66 1012.6
20260508094503 42 182 0.0 3.0 0.00 0.00 0.00 66 1012.6
20260508093603 43 183 0.0 2.0 0.00 0.00 0.00 63 1012.9
20260508092703 44 186 1.0 4.0 0.00 0.00 0.00 64 1012.9
20260508091803 43 176 1.0 4.0 0.00 0.00 0.00 63 1013.0
20260508090903 44 167 0.0 2.0 0.00 0.00 0.00 62 1013.1
20260508090217 44 190 0.0 2.0 0.00 0.00 0.00 63 1013.1
20260508085403 44 178 1.0 2.0 0.00 0.00 0.00 61 1013.3
20260508084504 45 168 1.0 3.0 0.00 0.00 0.00 61 1013.1
20260508083603 45 169 1.0 2.0 0.00 0.00 0.00 59 1013.2
20260508082703 45 173 1.0 2.0 0.00 0.00 0.00 58 1013.3
20260508082018 45 172 1.0 2.0 0.00 0.00 0.00 57 1013.3
20260508080903 46 158 1.0 2.0 0.00 0.00 0.00 58 1013.3
20260508080003 46 160 1.0 3.0 0.00 0.00 0.00 58 1013.4
20260508075618 46 152 1.0 3.0 0.00 0.00 0.00 58 1013.4
20260508074717 46 161 1.0 3.0 0.00 0.00 0.00 58 1013.7
20260508073603 46 187 0.0 2.0 0.00 0.00 0.00 59 1013.4
20260508072918 46 164 1.0 3.0 0.00 0.00 0.00 58 1013.5
20260508071803 46 151 2.0 4.0 0.00 0.00 0.00 56 1013.4
20260508070903 45 354 0.0 3.0 0.00 0.00 0.00 56 1013.7
20260508070003 46 142 0.0 2.0 0.00 0.00 0.00 55 1013.8
20260508065403 46 153 0.0 2.0 0.00 0.00 0.00 53 1013.7
20260508064503 46 160 1.0 3.0 0.00 0.00 0.00 52 1013.7
20260508063603 46 149 1.0 3.0 0.00 0.00 0.00 50 1013.7
20260508062703 46 103 0.0 2.0 0.00 0.00 0.00 51 1013.5
20260508062017 46 66 0.0 2.0 0.00 0.00 0.00 51 1013.8
20260508060903 46 0 0.0 0.0 0.00 0.00 0.00 49 1014.0
20260508060003 47 0 0.0 0.0 0.00 0.00 0.00 49 1014.0
20260508055403 47 0 0.0 0.0 0.00 0.00 0.00 50 1014.1
20260508054503 47 23 0.0 2.0 0.00 0.00 0.00 49 1013.9
20260508053603 48 170 0.0 1.0 0.00 0.00 0.00 46 1014.1
20260508052917 48 144 0.0 1.0 0.00 0.00 0.00 46 1014.1
20260508052017 48 40 0.0 1.0 0.00 0.00 0.00 45 1014.0
20260508051118 49 19 0.0 1.0 0.00 0.00 0.00 46 1014.0
20260508050004 49 9 0.0 2.0 0.00 0.00 0.00 45 1014.1
20260508045403 49 9 0.0 2.0 0.00 0.00 0.00 44 1014.2
20260508044503 50 1 0.0 1.0 0.00 0.00 0.00 45 1014.1
20260508043603 50 2 0.0 2.0 0.00 0.00 0.00 43 1013.9
20260508042703 51 25 0.0 2.0 0.00 0.00 0.00 43 1014.0
20260508041803 51 353 1.0 2.0 0.00 0.00 0.00 43 1014.1
20260508040903 52 357 1.0 2.0 0.00 0.00 0.00 41 1014.0
20260508040003 52 355 0.0 2.0 0.00 0.00 0.00 41 1014.0
20260508035403 53 357 0.0 2.0 0.00 0.00 0.00 41 1013.8
20260508034503 54 4 0.0 2.0 0.00 0.00 0.00 41 1013.9
20260508033817 54 1 0.0 2.0 0.00 0.00 0.00 41 1013.8
20260508032703 55 357 0.0 2.0 0.00 0.00 0.00 40 1013.7
20260508031803 56 359 1.0 2.0 0.00 0.00 0.00 40 1013.7
20260508030903 57 346 1.0 2.0 0.00 0.00 0.00 39 1013.5
20260508030004 59 345 0.0 2.0 0.00 0.00 0.00 37 1013.7
20260508025403 60 351 0.0 2.0 0.00 0.00 0.00 35 1013.8
20260508024503 61 360 0.0 2.0 0.00 0.00 0.00 31 1013.5
20260508023603 62 357 0.0 4.0 0.00 0.00 0.00 28 1013.7
20260508022703 63 36 0.0 3.0 0.00 0.00 0.00 27 1013.9
20260508022018 63 58 1.0 5.0 0.00 0.00 0.00 27 1013.8
20260508020903 64 12 1.0 4.0 0.00 0.00 0.00 26 1013.9
20260508020218 64 28 1.0 5.0 0.00 0.00 0.00 26 1013.9
20260508015403 64 6 1.0 4.0 0.00 0.00 0.00 26 1014.1
20260508014503 64 5 1.0 5.0 0.00 0.00 0.00 27 1013.9
20260508013603 64 356 1.0 5.0 0.00 0.00 0.00 26 1013.9
20260508012703 64 266 1.0 4.0 0.00 0.00 0.00 27 1014.0
20260508011803 64 307 1.0 5.0 0.00 0.00 0.00 27 1014.2
20260508011117 64 355 2.0 7.0 0.00 0.00 0.00 25 1014.2
20260508010003 65 42 1.0 5.0 0.00 0.00 0.00 25 1014.2
20260508005403 65 329 1.0 4.0 0.00 0.00 0.00 27 1014.1
20260508004717 65 346 2.0 11.0 0.00 0.00 0.00 26 1014.2
20260508003603 65 357 2.0 8.0 0.00 0.00 0.00 26 1014.4
20260508002703 65 359 2.0 6.0 0.00 0.00 0.00 24 1014.4
20260508002017 66 102 1.0 5.0 0.00 0.00 0.00 25 1014.2
20260508000903 66 314 1.0 4.0 0.00 0.00 0.00 27 1014.6
20260508000003 65 15 3.0 8.0 0.00 0.00 0.00 24 1014.6
20260507235403 65 3 3.0 12.0 0.00 0.00 0.00 24 1014.4
20260507234718 65 8 2.0 10.0 0.00 0.00 0.00 25 1014.3
20260507233603 65 285 2.0 6.0 0.00 0.00 0.00 25 1014.7
20260507232703 66 326 2.0 9.0 0.00 0.00 0.00 25 1014.8
20260507231803 65 280 2.0 5.0 0.00 0.00 0.00 24 1014.9
20260507230903 65 258 2.0 4.0 0.00 0.00 0.00 24 1014.9
20260507230003 65 242 1.0 4.0 0.00 0.00 0.00 26 1015.0
20260507225403 65 266 1.0 5.0 0.00 0.00 0.00 25 1015.1
20260507224504 65 269 1.0 3.0 0.00 0.00 0.00 26 1015.1
20260507223603 65 215 1.0 4.0 0.00 0.00 0.00 27 1015.1
20260507222703 66 234 2.0 4.0 0.00 0.00 0.00 25 1015.3
20260507221803 67 182 2.0 6.0 0.00 0.00 0.00 26 1015.6
20260507220903 67 191 2.0 6.0 0.00 0.00 0.00 26 1015.6
20260507220004 67 204 2.0 5.0 0.00 0.00 0.00 27 1015.5
20260507215403 66 270 2.0 5.0 0.00 0.00 0.00 27 1015.8
20260507214717 67 245 2.0 6.0 0.00 0.00 0.00 27 1015.5
20260507213817 66 252 2.0 7.0 0.00 0.00 0.00 28 1016.0
20260507212703 66 188 2.0 7.0 0.00 0.00 0.00 30 1016.1
20260507211803 65 256 1.0 4.0 0.00 0.00 0.00 29 1015.9
20260507210903 66 185 3.0 8.0 0.00 0.00 0.00 29 1016.0
20260507210218 66 177 3.0 8.0 0.00 0.00 0.00 30 1016.0
20260507205403 65 164 3.0 8.0 0.00 0.00 0.00 31 1016.5
20260507204503 64 247 2.0 6.0 0.00 0.00 0.00 32 1016.4
20260507203603 63 210 2.0 6.0 0.00 0.00 0.00 31 1016.5
20260507202703 63 40 3.0 9.0 0.00 0.00 0.00 31 1016.2
20260507201803 64 241 2.0 6.0 0.00 0.00 0.00 31 1016.4
20260507201116 63 199 1.0 6.0 0.00 0.00 0.00 32 1016.5
20260507200003 63 239 2.0 7.0 0.00 0.00 0.00 32 1016.7
20260507195403 63 231 2.0 6.0 0.00 0.00 0.00 31 1016.5
20260507194503 64 239 2.0 6.0 0.00 0.00 0.00 32 1016.7
20260507193603 63 185 2.0 6.0 0.00 0.00 0.00 33 1016.9
20260507192918 62 241 2.0 6.0 0.00 0.00 0.00 35 1016.8
20260507191803 62 10 2.0 9.0 0.00 0.00 0.00 34 1016.9
20260507190903 61 261 2.0 6.0 0.00 0.00 0.00 35 1016.9
20260507190218 60 258 2.0 6.0 0.00 0.00 0.00 34 1017.0
20260507185617 60 228 2.0 4.0 0.00 0.00 0.00 35 1017.0
20260507184504 60 332 2.0 8.0 0.00 0.00 0.00 35 1017.4
20260507183818 59 337 2.0 7.0 0.00 0.00 0.00 36 1017.1
20260507182703 59 296 1.0 4.0 0.00 0.00 0.00 35 1017.0
20260507181803 58 268 2.0 7.0 0.00 0.00 0.00 36 1017.1
20260507180903 58 249 2.0 6.0 0.00 0.00 0.00 37 1017.2
20260507180003 58 253 2.0 5.0 0.00 0.00 0.00 37 1017.5
20260507175403 58 248 2.0 4.0 0.00 0.00 0.00 38 1017.0
20260507174503 57 316 1.0 6.0 0.00 0.00 0.00 39 1017.5
20260507173603 58 350 2.0 9.0 0.00 0.00 0.00 38 1017.2
20260507172703 57 12 2.0 9.0 0.00 0.00 0.00 38 1017.5
20260507171803 56 292 2.0 11.0 0.00 0.00 0.00 39 1017.1
20260507171118 56 303 2.0 7.0 0.00 0.00 0.00 40 1017.1